EW9248 Weather Reports


Display with metric or nautical units.
time (UTC)temp
F
wind
direction
speed
MPH
gust
MPH
rain 1hr
in
rain 24hr
in
rain mn
in
humidity
%
barometer
mb
20260504231317 71 157 2.0 2.0 0.00 0.00 0.00 42 1005.5
20260504230316 72 180 3.0 4.0 0.00 0.00 0.00 42 1005.5
20260504225316 72 135 3.0 4.0 0.00 0.00 0.00 40 1005.3
20260504224316 73 180 4.0 7.0 0.00 0.00 0.00 35 1005.3
20260504223316 73 202 3.0 4.0 0.00 0.00 0.00 37 1005.4
20260504222316 74 247 5.0 8.0 0.00 0.00 0.00 35 1005.4
20260504221356 74 225 2.0 5.0 0.00 0.00 0.00 36 1005.4
20260504220359 73 247 5.0 9.0 0.00 0.00 0.00 37 1005.4
20260504215316 73 225 3.0 5.0 0.00 0.00 0.00 36 1005.5
20260504214336 74 247 7.0 14.0 0.00 0.00 0.00 36 1005.8
20260504213336 73 247 6.0 13.0 0.00 0.00 0.00 37 1005.7
20260504212436 73 202 6.0 10.0 0.00 0.00 0.00 37 1005.7
20260504211315 74 270 6.0 9.0 0.00 0.00 0.00 39 1005.6
20260504210316 73 247 8.0 12.0 0.00 0.00 0.00 38 1005.9
20260504205316 73 270 3.0 8.0 0.00 0.00 0.00 38 1006.0
20260504204316 73 247 10.0 15.0 0.00 0.00 0.00 37 1006.1
20260504203336 72 270 6.0 12.0 0.00 0.00 0.00 39 1006.2
20260504202336 71 225 4.0 10.0 0.00 0.00 0.00 43 1006.2
20260504201335 72 202 4.0 6.0 0.00 0.00 0.00 40 1006.4
20260504200315 71 247 4.0 5.0 0.00 0.00 0.00 43 1006.5
20260504195436 70 247 7.0 12.0 0.00 0.00 0.00 41 1006.6
20260504194356 70 270 8.0 12.0 0.00 0.00 0.00 45 1006.9
20260504193315 71 225 3.0 6.0 0.00 0.00 0.00 40 1006.9
20260504192356 70 247 6.0 8.0 0.00 0.00 0.00 41 1007.0
20260504191316 71 247 9.0 14.0 0.00 0.00 0.00 41 1007.3
20260504190315 72 270 6.0 10.0 0.00 0.00 0.00 41 1007.4
20260504185316 71 247 4.0 7.0 0.00 0.00 0.00 47 1007.6
20260504184355 71 225 3.0 8.0 0.00 0.00 0.00 43 1007.5
20260504183316 72 315 3.0 6.0 0.00 0.00 0.00 45 1007.5
20260504182315 70 202 4.0 5.0 0.00 0.00 0.00 43 1007.7
20260504181316 70 247 5.0 7.0 0.00 0.00 0.00 45 1007.7
20260504180355 69 202 7.0 16.0 0.00 0.00 0.00 44 1007.8
20260504175316 69 202 5.0 7.0 0.00 0.00 0.00 44 1008.0
20260504174315 70 202 4.0 7.0 0.00 0.00 0.00 47 1008.1
20260504173335 69 202 6.0 11.0 0.00 0.00 0.00 44 1008.0
20260504172315 69 270 8.0 14.0 0.00 0.00 0.00 46 1008.3
20260504171336 69 247 8.0 13.0 0.00 0.00 0.00 47 1008.3
20260504170315 69 247 6.0 13.0 0.00 0.00 0.00 48 1008.4
20260504160316 66 202 5.0 9.0 0.00 0.00 0.00 45 1009.2
20260504150336 63 247 9.0 14.0 0.00 0.00 0.00 49 1010.0
20260504141335 59 225 3.0 5.0 0.00 0.00 0.00 53 1010.6
20260504140315 58 225 7.0 11.0 0.00 0.00 0.00 52 1010.7
20260504130315 53 225 1.0 4.0 0.00 0.00 0.00 60 1011.2
20260504110337 36 0.0 0.0 0.00 0.00 0.00 92 1011.2
20260504100317 33 0.0 0.0 0.00 0.00 0.00 92 1010.9
20260504081317 35 0.0 0.0 0.00 0.00 0.00 90 1011.1
20260504080357 35 0.0 0.0 0.00 0.00 0.00 90 1011.1
20260504070337 36 0.0 0.0 0.00 0.00 0.00 89 1011.1
20260504050317 40 0.0 0.0 0.00 0.00 0.00 85 1011.3
20260504045316 40 0.0 0.0 0.00 0.00 0.00 84 1011.4
20260504044357 41 0.0 0.0 0.00 0.00 0.00 83 1011.3
20260504043316 42 0.0 0.0 0.00 0.00 0.00 82 1011.3
20260504042316 42 0.0 0.0 0.00 0.00 0.00 81 1011.3
20260504041316 43 0.0 0.0 0.00 0.00 0.00 81 1011.3
20260504040316 44 0.0 0.0 0.00 0.00 0.00 80 1011.3
20260504035337 45 0.0 0.0 0.00 0.00 0.00 79 1011.3
20260504034316 46 0.0 0.0 0.00 0.00 0.00 78 1011.3
20260504033316 46 0.0 0.0 0.00 0.00 0.00 78 1011.4
20260504032437 46 0.0 0.0 0.00 0.00 0.00 78 1011.4
20260504031316 47 0.0 0.0 0.00 0.00 0.00 77 1011.5
20260504030316 47 0.0 0.0 0.00 0.00 0.00 76 1011.5
20260504025336 48 0.0 0.0 0.00 0.00 0.00 75 1011.4
20260504024317 48 0.0 0.0 0.00 0.00 0.00 75 1011.5
20260504023336 48 0.0 0.0 0.00 0.00 0.00 76 1011.7
20260504022336 48 0.0 0.0 0.00 0.00 0.00 75 1011.7
20260504021316 48 225 1.0 1.0 0.00 0.00 0.00 74 1011.7
20260504020336 48 0.0 0.0 0.00 0.00 0.00 73 1011.7
20260504015316 48 0.0 1.0 0.00 0.00 0.00 73 1011.7
20260504014436 48 0.0 0.0 0.00 0.00 0.00 73 1011.6
20260504013317 48 0.0 0.0 0.00 0.00 0.00 73 1011.5
20260504012316 48 0.0 0.0 0.00 0.00 0.00 72 1011.4
20260504011356 49 0.0 0.0 0.00 0.00 0.00 71 1011.4
20260504010316 49 0.0 0.0 0.00 0.00 0.00 69 1011.3
20260504005316 50 0.0 0.0 0.00 0.00 0.00 70 1011.3
20260504004317 50 0.0 0.0 0.00 0.00 0.00 69 1011.3
20260504003336 51 0.0 0.0 0.00 0.00 0.00 67 1011.1
20260504002316 52 0.0 0.0 0.00 0.00 0.00 61 1011.0
20260504001317 52 0.0 0.0 0.00 0.00 0.00 63 1011.0
20260504000316 52 0.0 0.0 0.00 0.00 0.00 64 1010.7
20260503235336 54 0.0 0.0 0.00 0.00 0.00 56 1010.6
20260503234337 55 0.0 0.0 0.00 0.00 0.00 52 1010.6
20260503233357 55 247 1.0 2.0 0.00 0.00 0.00 48 1010.4
20260503232416 56 247 3.0 4.0 0.00 0.00 0.00 46 1010.4